Torrington, WY

7:44 AM MST on December 08, 2016 (GMT -0700)
Torrington Municipal

Weather History for KTOR - January, 2014

Change the Weather History Date:

Wednesday, January 22, 2014

  Actual Average Record
Temperature  
Mean Temperature 24 °F 29 °F  
Max Temperature 36 °F 43 °F 64 °F (2009)
Min Temperature 11 °F 15 °F -13 °F (2008)
Degree Days  
Heating Degree Days 41 36  
Month to date heating degree days 755 815  
Since 1 July heating degree days 3521 3571  
Cooling Degree Days 0 0  
Month to date cooling degree days 0 0  
Year to date cooling degree days 0 0  
Moisture  
Dew Point 14 °F    
Average Humidity 59    
Maximum Humidity 77    
Minimum Humidity 40    
Precipitation  
Precipitation T in 0.01 in 0.08 in (2003)
Month to date precipitation 0.12 0.18  
Year to date precipitation 0.12 0.18  
Sea Level Pressure  
Sea Level Pressure 30.28 in    
Wind  
Wind Speed 9 mph (NE)    
Max Wind Speed 20 mph    
Max Gust Speed 23 mph    
Visibility 10 miles    
Events Snow    
T = Trace of Precipitation, MM = Missing Value Source: NWS Daily Summary

Daily Weather History Graph

Daily Weather History Graph

Search for Another Location

Airport or City:

Trip Planner

Search our weather history database for the weather conditions in past years. The results will help you decide how hot, cold, wet, or windy it might be!

Date:

Astronomy

Jan. 22, 2014 Rise Set
Actual Time 7:18 AM MST 4:58 PM MST
Civil Twilight 6:47 AM MST 5:29 PM MST
Nautical Twilight 6:13 AM MST 6:03 PM MST
Astronomical Twilight 5:40 AM MST 6:36 PM MST
Moon 11:41 PM MST (1/22) 10:13 AM MST (1/22)
Length of Visible Light 10h 41m
Length of Day
9h 40m
Waning Gibbous, 65% of the Moon is Illuminated
Jan 22
Waning Gibbous
Jan 23
Last Quarter
Jan 30
New
Feb 6
First Quarter
Feb 14
Full

Hourly Weather History & Observations

Time (MST) Temp. Windchill Dew Point Humidity Pressure Visibility Wind Dir Wind Speed Gust Speed Precip Events Conditions
12:53 AM 23.0 °F 14.7 °F 15.1 °F 72% 30.15 in 10.0 mi West 6.9 mph - N/A   Clear
1:53 AM 26.1 °F 17.6 °F 17.1 °F 69% 30.15 in 10.0 mi WNW 8.1 mph - N/A   Overcast
2:53 AM 25.0 °F 18.1 °F 17.1 °F 72% 30.16 in 10.0 mi WNW 5.8 mph - N/A   Clear
9:53 AM 35.1 °F 27.4 °F 24.1 °F 64% 30.16 in 10.0 mi NNW 10.4 mph - N/A   Unknown
10:53 AM 35.1 °F 27.4 °F 21.9 °F 59% 30.18 in 10.0 mi NNW 10.4 mph - N/A   Overcast
11:53 AM 35.1 °F 26.9 °F 19.9 °F 54% 30.17 in 10.0 mi North 11.5 mph - N/A   Overcast
12:53 PM 35.1 °F 25.5 °F 14.0 °F 42% 30.17 in 10.0 mi North 15.0 mph - N/A   Overcast
1:53 PM 34.0 °F 25.0 °F 16.0 °F 48% 30.16 in 10.0 mi North 12.7 mph - N/A   Mostly Cloudy
2:53 PM 33.1 °F 23.9 °F 15.1 °F 48% 30.19 in 10.0 mi North 12.7 mph - N/A   Mostly Cloudy
3:53 PM 30.0 °F 20.0 °F 17.1 °F 59% 30.23 in 10.0 mi ENE 12.7 mph - N/A   Overcast
4:00 PM 28.9 °F 18.2 °F 18.0 °F 64% 30.15 in 10.0 mi NE 13.8 mph - N/A   Overcast
4:53 PM 27.0 °F 16.7 °F 17.1 °F 66% 30.28 in 10.0 mi NE 11.5 mph - N/A   Overcast
5:53 PM 21.9 °F 8.2 °F 15.1 °F 75% 30.34 in 10.0 mi ENE 16.1 mph - N/A   Overcast
6:53 PM 18.0 °F 2.6 °F 10.9 °F 74% 30.39 in 10.0 mi East 17.3 mph - N/A   Overcast
7:13 PM 17.1 °F 1.0 °F 9.0 °F 71% 30.27 in 10.0 mi ENE 18.4 mph - N/A   Overcast
7:53 PM 15.1 °F -0.6 °F 8.1 °F 74% 30.45 in 10.0 mi East 16.1 mph - N/A   Overcast
8:53 PM 14.0 °F -0.2 °F 6.1 °F 71% 30.48 in 10.0 mi East 12.7 mph - N/A   Overcast
9:53 PM 12.0 °F -0.4 °F 6.1 °F 77% 30.49 in 10.0 mi East 9.2 mph - N/A   Overcast
10:53 PM 12.0 °F -0.4 °F 6.1 °F 77% 30.51 in 10.0 mi ESE 9.2 mph - N/A   Overcast
11:53 PM 10.9 °F -0.8 °F 5.0 °F 77% 30.55 in 9.0 mi ESE 8.1 mph - 0.00 in Snow Light Snow